Theta_e
316 317 317 318 320 321 319 319 321 319 314 315 318 321 326 329 331 333 333 332 332 333 334 334 334 334 331 328 327 325 323 321 321 321 320 324 321 319 319 316 319 318 315 316 318 321 321 322 323 323 324 324 326 327 325 325 324 324 327 327 326 327 328 329 329 326 322 319 319 321 322 323 323 322 321 321 321 323 322 324 327 328 330 335 338 338 337 337
316 317 318 318 319 320 319 320 320 317 313 314 316 318 323 328 331 332 333 332 332 333 334 334 334 334 329 326 327 328 326 322 321 320 322 327 322 318 319 318 319 317 316 317 319 321 322 322 324 325 326 326 327 326 325 325 323 325 327 327 327 330 328 325 324 321 321 319 318 319 320 322 323 322 321 321 322 322 322 325 326 329 329 331 338 338 337 338
316 317 318 317 319 321 318 319 319 315 314 315 315 317 322 328 331 332 333 333 333 333 334 333 334 333 329 326 329 330 327 322 322 322 322 326 324 322 321 320 320 318 317 318 319 321 322 323 325 327 327 328 328 325 325 325 324 325 327 327 329 329 325 322 321 319 319 319 318 318 317 319 321 321 321 321 323 322 322 324 325 328 329 331 337 338 337 338
317 317 317 317 319 320 318 319 318 315 315 316 316 318 322 327 329 330 333 333 333 333 333 333 334 333 329 328 328 326 324 324 325 324 323 324 324 325 323 321 319 318 318 318 320 321 322 324 325 326 328 330 330 327 326 325 325 326 325 328 328 327 326 321 320 318 317 318 318 317 317 318 319 320 321 321 322 323 322 323 324 325 328 331 336 338 337 337
316 317 317 318 319 319 318 319 317 315 316 316 317 319 321 325 328 329 332 333 333 333 333 333 334 332 327 325 324 323 325 330 329 325 325 323 323 324 322 320 319 319 319 320 322 322 322 324 326 327 327 330 332 331 329 324 324 326 325 326 324 325 325 319 317 317 317 318 318 317 317 317 317 318 319 320 321 322 320 321 322 323 327 330 334 338 336 336
315 317 318 319 319 318 318 317 316 316 317 317 318 318 321 325 328 329 332 333 333 332 332 333 332 328 324 322 323 324 328 333 329 325 327 324 322 323 321 318 317 318 319 321 322 322 323 325 328 328 328 331 333 333 331 327 324 326 325 324 323 323 321 318 315 316 316 317 317 317 316 316 317 317 318 319 320 320 319 320 321 322 328 329 333 338 337 336
316 317 318 319 318 318 317 316 315 316 317 318 319 319 321 326 329 330 331 333 332 331 331 332 330 325 322 323 324 324 328 330 325 326 327 324 321 321 321 318 316 318 320 322 324 324 325 328 329 329 330 332 334 334 332 330 326 326 327 325 324 323 320 316 315 314 315 317 317 316 315 316 317 317 318 318 318 320 320 319 319 322 328 329 331 336 338 336
316 318 318 318 318 317 315 315 315 316 316 318 319 319 322 326 329 329 330 332 332 330 330 331 329 323 321 323 324 323 325 326 324 326 326 324 320 318 319 318 318 320 322 325 325 326 327 329 329 330 332 334 334 334 334 333 327 325 328 328 324 323 320 315 314 315 315 316 315 315 315 316 317 316 317 318 318 319 319 318 318 321 329 330 330 334 337 337
315 318 318 318 317 317 315 315 315 315 316 317 318 318 319 324 327 327 328 331 331 331 330 329 327 322 321 322 321 322 323 323 324 325 325 323 319 317 320 320 321 321 323 325 325 327 329 329 330 330 332 334 334 334 336 335 327 322 326 329 323 320 320 316 314 316 315 315 314 315 315 316 316 316 317 317 317 319 320 320 319 322 329 332 331 332 333 336
315 317 317 317 317 316 315 314 313 315 316 317 318 318 317 319 322 323 324 328 331 330 329 328 324 321 322 321 321 324 323 322 325 325 325 324 320 320 320 321 321 321 322 325 327 328 329 330 329 329 331 333 335 335 336 333 327 324 326 328 324 319 319 317 316 317 316 317 315 315 317 317 316 316 317 318 317 320 322 321 320 321 327 330 331 332 330 332
316 316 316 317 316 316 315 314 314 315 316 316 316 316 316 317 318 318 319 325 331 330 328 327 322 320 321 321 322 325 323 323 326 325 324 323 321 320 320 321 321 321 324 326 328 328 328 329 328 330 334 333 333 336 334 329 327 327 326 327 323 320 320 318 318 318 317 318 316 315 317 317 316 316 317 318 318 320 320 319 321 321 323 326 329 332 331 330
316 316 316 316 316 316 314 313 314 314 315 314 315 315 316 316 317 315 316 324 331 328 327 326 322 320 321 322 323 324 322 323 325 325 324 322 322 321 320 321 321 323 325 326 327 326 325 326 326 330 332 331 331 335 334 328 327 328 325 324 322 320 320 319 319 319 318 318 317 317 319 319 317 316 316 317 317 317 318 319 322 323 322 324 326 331 333 330
315 315 315 315 316 316 313 312 312 313 313 312 314 315 316 316 316 315 316 323 330 328 327 326 322 320 321 323 324 322 322 323 324 325 324 323 323 322 322 322 322 324 325 325 326 325 324 325 327 327 325 329 333 329 329 327 326 328 324 324 326 325 323 321 320 320 319 319 318 319 323 324 321 319 317 317 317 317 318 319 322 324 322 323 325 329 333 331
315 315 315 315 316 315 313 311 311 313 313 312 313 314 315 315 315 315 314 319 328 329 326 325 321 320 322 324 324 322 323 323 324 325 324 324 324 322 323 323 323 324 323 324 324 324 324 324 326 327 325 329 329 322 325 330 328 328 327 329 332 331 329 326 323 321 320 319 319 320 323 326 325 323 319 317 318 317 317 318 321 324 322 323 325 329 332 332
314 314 314 314 315 314 313 312 314 315 314 312 313 314 314 315 315 315 313 316 326 328 325 324 321 321 324 324 323 323 323 323 325 324 324 325 324 322 323 324 323 323 323 323 324 324 324 324 327 331 329 325 323 324 328 329 327 328 331 333 333 333 333 330 326 323 322 319 318 320 322 325 324 324 321 318 319 317 317 318 319 321 322 323 326 329 331 331
314 314 314 314 314 314 312 313 315 315 313 312 313 313 314 315 315 315 313 316 325 327 324 324 321 321 324 324 322 324 325 325 325 325 325 324 323 322 324 323 322 324 324 324 324 322 323 325 327 329 329 324 323 326 328 328 328 329 332 333 334 333 332 331 329 326 323 320 319 321 324 326 324 324 322 318 317 317 317 318 318 319 321 322 326 328 330 330
314 314 314 315 314 313 313 314 315 314 313 313 313 313 314 314 315 315 313 315 323 326 324 323 321 322 324 322 323 325 326 325 324 326 326 324 322 322 323 321 323 324 323 323 322 321 323 323 325 327 329 327 325 325 331 334 333 332 332 333 333 334 332 331 330 329 326 322 320 321 324 327 326 324 322 319 318 317 317 318 319 319 319 322 325 326 326 327
314 315 315 314 313 313 314 314 314 314 314 313 313 313 313 314 315 315 314 315 323 325 323 323 321 325 327 321 323 326 326 325 325 327 327 324 320 322 322 320 322 322 320 321 320 321 323 321 323 331 332 329 327 327 334 337 334 333 333 332 332 333 334 331 328 329 329 326 325 323 322 325 325 324 321 317 317 318 318 320 321 321 319 321 324 325 325 325
314 314 313 313 313 313 314 314 314 314 314 314 314 313 314 315 315 316 315 318 325 326 326 325 323 328 329 322 323 325 324 324 326 328 327 323 320 321 322 321 322 321 319 321 321 320 322 321 324 331 333 330 328 327 332 333 331 334 333 331 331 331 333 331 326 326 327 328 329 326 324 324 325 326 324 319 316 317 319 320 321 321 320 319 321 323 324 325
313 313 312 313 313 314 314 314 314 314 314 314 314 314 316 317 317 317 316 318 324 327 327 326 324 327 325 322 323 324 324 325 326 327 325 323 321 320 322 322 322 321 320 321 322 320 320 323 326 330 331 329 327 327 329 331 331 334 333 330 331 331 332 331 326 325 325 327 327 327 327 327 327 327 326 325 320 317 318 319 319 320 320 319 319 320 322 324
312 311 311 313 313 313 312 312 313 313 313 313 313 315 317 318 318 318 319 321 323 325 326 325 325 326 324 323 324 323 324 326 326 326 325 323 321 322 323 322 323 323 322 321 322 320 321 325 327 326 327 326 327 328 329 330 331 332 332 331 331 332 332 327 323 322 323 325 326 327 327 327 327 326 326 327 325 322 318 318 318 319 320 321 319 320 321 321
311 310 309 310 312 313 313 312 313 313 313 313 313 315 316 316 316 315 320 324 323 324 325 324 325 325 323 323 323 323 325 327 326 325 324 323 323 324 323 322 323 323 322 322 322 322 324 326 325 324 325 325 327 327 328 329 330 332 333 333 332 333 332 323 317 318 319 321 325 325 325 325 325 325 325 325 325 324 323 321 321 320 320 321 320 320 320 321
311 309 309 311 313 314 314 314 313 313 313 313 313 314 315 315 314 313 317 320 321 325 325 323 325 324 323 325 324 325 326 327 327 326 323 323 323 323 323 323 323 323 323 323 323 324 325 325 324 324 325 326 328 327 328 329 330 333 333 333 332 333 335 326 318 317 317 319 323 322 322 322 322 323 324 323 322 322 323 323 323 323 323 322 322 322 321 321
311 309 309 311 312 313 314 313 313 313 312 312 313 314 314 313 313 313 316 316 316 322 324 323 324 324 325 325 325 326 327 326 326 325 323 323 323 322 323 323 323 325 325 323 323 324 325 325 323 325 325 327 329 328 329 329 331 334 333 334 333 333 334 327 321 318 316 318 319 319 324 325 324 326 325 323 322 320 321 322 322 323 323 323 324 325 324 323
310 310 310 311 311 311 312 312 312 312 312 312 313 313 313 312 312 313 315 315 314 320 324 324 324 325 325 325 325 326 326 326 325 323 322 322 322 322 322 322 323 326 326 323 323 324 325 325 324 326 326 327 330 329 331 331 331 333 333 333 332 334 331 324 322 323 323 325 321 321 332 334 329 328 328 327 325 323 322 322 321 321 322 322 323 324 326 326
310 310 310 310 310 310 310 310 311 312 312 312 312 312 312 312 311 312 315 314 316 321 325 326 327 327 326 326 326 325 328 328 324 321 321 321 322 322 323 324 324 327 326 323 324 326 326 325 325 327 327 329 331 330 331 331 331 332 332 331 331 333 331 325 325 329 331 331 323 321 332 335 329 326 327 328 328 327 326 325 323 321 320 321 320 320 322 324
310 309 309 309 310 309 309 309 310 312 312 312 311 311 311 311 311 313 316 317 320 323 325 326 327 327 326 326 324 325 330 328 324 323 321 322 323 322 325 326 326 327 325 324 328 328 326 327 327 328 328 330 330 330 330 330 331 332 332 332 332 331 332 329 326 329 331 329 322 320 325 329 328 324 324 325 326 326 327 327 326 323 321 320 319 319 320 321
309 308 308 308 308 308 308 308 309 311 312 311 311 311 311 311 311 313 316 320 323 323 324 325 323 323 326 325 323 326 327 325 325 325 321 321 324 322 325 326 326 328 325 325 329 328 326 328 329 328 329 330 329 329 330 329 330 330 329 331 332 330 331 329 326 328 329 329 328 323 322 327 329 325 323 325 324 324 325 325 327 325 322 321 320 318 319 319
309 307 307 306 307 307 307 307 308 310 310 310 311 311 310 311 313 314 316 320 323 322 322 323 322 324 327 326 325 326 324 324 327 324 320 322 323 322 325 325 323 326 325 325 328 327 325 326 327 327 328 328 328 329 330 329 328 327 328 328 329 328 327 326 327 327 327 328 329 326 324 328 331 327 324 327 325 324 324 324 326 325 323 322 320 320 320 320
308 307 306 306 306 306 306 307 308 309 309 310 311 311 310 312 314 316 317 319 321 321 320 322 324 326 328 327 328 327 325 325 324 321 322 324 323 322 324 325 324 324 325 325 324 322 320 321 324 326 326 326 327 328 330 330 326 325 326 325 326 326 325 325 325 325 327 328 329 328 324 326 331 330 325 326 326 324 324 324 324 325 325 324 321 321 321 321
308 307 305 305 305 305 306 308 308 309 309 310 310 311 312 313 314 317 319 318 320 320 320 323 325 328 328 328 329 327 325 324 321 322 323 323 323 325 325 327 327 326 327 327 322 319 320 322 325 325 324 325 327 326 327 326 324 325 324 324 326 325 324 325 324 325 330 330 327 326 325 325 329 331 327 327 326 324 324 324 324 325 327 326 324 323 322 322
307 306 304 304 304 304 306 307 307 308 309 309 310 311 313 313 315 319 319 319 321 318 318 322 326 329 328 328 329 327 326 325 322 322 324 324 325 326 326 326 326 328 329 327 324 322 322 324 324 324 322 323 326 325 324 323 323 325 324 325 330 329 327 329 327 327 330 329 322 322 326 327 326 326 325 326 324 322 323 323 323 325 325 328 328 326 324 325
307 305 305 305 305 306 307 306 306 308 309 310 311 312 313 315 317 319 319 319 320 317 316 320 325 329 329 329 329 326 326 325 323 323 323 324 326 326 326 325 324 327 329 326 324 322 323 324 324 322 321 321 324 324 323 323 323 323 323 326 331 330 329 331 330 329 331 327 319 320 326 329 326 324 323 323 322 322 323 322 324 324 322 325 328 327 326 326
306 306 306 306 306 306 305 304 306 307 308 309 310 311 314 317 318 318 317 316 315 315 316 319 324 329 329 329 328 326 326 326 323 324 324 325 327 327 326 325 323 325 326 325 324 323 326 327 323 321 322 321 323 323 323 323 322 323 323 326 330 330 331 332 331 331 333 326 319 320 327 331 329 325 322 321 321 321 321 321 324 324 322 323 325 325 326 325
306 306 307 306 306 305 303 303 305 306 307 308 309 311 315 318 319 318 316 314 312 314 316 317 322 329 330 328 327 325 325 326 324 324 325 326 327 327 326 325 323 323 325 326 325 323 326 327 321 320 322 320 323 324 321 322 323 324 324 325 328 329 328 329 327 326 329 328 322 323 328 329 325 322 320 321 321 319 319 320 322 324 323 322 323 323 326 324
307 307 307 306 307 305 302 303 305 306 307 307 308 312 315 316 316 316 316 313 312 314 316 317 320 327 331 328 327 326 325 325 325 325 327 326 326 326 326 324 322 323 324 326 325 324 326 326 321 319 319 318 323 324 320 323 325 324 325 325 325 326 325 326 326 321 322 329 327 324 326 324 319 321 321 321 321 318 318 319 319 321 322 322 324 326 327 325
307 307 306 307 307 305 303 304 305 306 307 306 309 312 312 311 311 314 316 315 314 315 317 320 319 322 328 328 327 327 325 325 326 326 327 327 326 326 325 324 322 322 323 323 324 324 325 323 320 318 319 318 322 324 320 323 324 323 325 324 324 326 324 322 324 324 324 328 328 325 325 324 321 324 324 321 321 319 317 318 317 319 321 322 324 327 328 327
306 306 306 306 306 305 305 305 305 306 306 306 309 310 309 309 309 311 314 315 316 316 318 321 319 318 323 326 327 326 326 327 327 327 328 328 328 327 324 324 322 321 322 322 324 323 323 322 319 318 319 319 320 323 322 322 322 322 324 322 323 328 326 322 323 328 328 326 328 328 327 325 322 322 322 322 321 319 317 317 317 318 320 320 322 326 327 327
305 305 305 306 306 306 305 305 305 305 306 306 309 309 308 308 307 308 310 313 316 317 318 318 317 316 318 322 326 326 326 328 327 327 327 327 328 326 323 324 322 321 322 321 323 323 321 324 320 317 318 318 319 322 323 322 321 320 321 322 322 324 326 324 322 326 329 327 328 329 326 328 325 320 321 323 321 318 317 318 318 318 318 319 321 325 327 329
305 305 305 305 305 305 304 304 305 305 306 307 309 308 307 308 307 305 307 311 315 317 317 315 314 316 316 317 323 326 326 327 327 327 328 326 327 326 323 323 322 322 321 321 323 323 322 323 321 317 316 318 321 321 322 322 320 318 321 322 322 321 324 325 322 323 326 325 328 327 326 330 326 318 320 321 319 319 319 319 322 322 321 322 324 328 332 333
304 305 304 304 305 305 303 304 305 305 306 308 308 308 307 307 306 305 305 308 312 314 315 314 313 316 316 316 320 324 327 328 327 327 328 326 327 327 324 322 322 322 322 323 323 323 323 323 320 316 316 318 320 319 320 322 320 318 320 321 322 321 322 324 325 323 321 323 326 325 326 330 326 318 319 319 319 320 320 322 326 326 325 325 326 330 335 333
304 304 304 304 305 305 304 305 305 306 307 307 307 308 307 306 305 305 305 306 309 311 312 312 311 312 313 314 316 318 322 327 327 326 327 326 326 326 324 321 321 321 322 324 323 324 324 321 318 317 317 318 318 318 319 322 321 318 319 321 322 321 321 323 326 325 322 323 322 321 324 329 326 321 320 320 322 322 322 325 326 324 323 323 324 328 332 329
304 304 303 303 304 305 304 305 306 306 306 307 306 307 307 306 305 306 306 306 308 309 310 311 311 312 311 311 313 314 316 323 327 326 325 326 324 325 324 322 321 321 322 324 325 325 323 319 317 317 317 316 316 316 316 318 319 319 319 319 321 321 320 321 322 323 323 323 321 320 323 325 324 324 323 324 325 322 322 323 323 322 321 322 324 327 329 327
302 302 302 302 303 303 304 306 306 306 306 305 306 306 306 306 306 306 306 307 307 308 309 310 312 312 310 309 311 313 313 319 326 326 325 325 324 324 324 322 322 322 322 323 324 324 324 320 318 318 319 319 318 317 316 315 317 319 319 318 319 320 321 322 320 319 322 326 324 322 324 323 321 322 321 320 320 318 318 318 319 323 324 323 323 324 325 326
301 302 302 302 303 303 304 304 305 306 306 306 306 306 306 306 305 305 306 306 305 307 308 309 310 311 309 308 310 311 310 314 321 324 325 326 325 325 324 323 323 322 322 324 323 322 324 322 319 320 322 322 322 321 320 318 316 317 318 318 319 320 321 322 320 319 322 326 324 322 322 320 317 316 316 317 316 315 315 315 316 320 323 324 324 323 324 325
301 302 302 303 303 302 302 302 303 304 305 306 306 306 307 307 306 305 306 306 306 306 307 308 309 309 310 310 312 313 311 311 313 316 320 325 326 326 324 324 323 321 324 327 323 321 324 322 319 321 322 322 322 322 321 319 318 318 319 319 319 320 321 321 321 320 320 322 324 322 320 319 318 316 316 317 316 315 315 315 316 317 319 322 324 324 325 326
302 302 302 302 302 302 302 302 302 303 304 305 306 306 306 307 307 306 306 306 306 306 306 307 308 309 310 312 313 314 313 311 312 313 315 319 323 325 325 324 324 324 326 325 322 324 326 323 321 321 322 321 321 322 320 319 319 318 319 319 319 319 321 321 321 320 319 320 322 321 319 320 319 317 317 317 316 316 316 316 316 317 320 323 325 325 323 323
302 302 302 302 302 302 302 302 302 303 304 305 305 306 306 306 307 307 306 306 306 307 308 308 308 308 309 310 313 314 313 314 314 314 314 316 321 324 326 326 324 325 325 324 322 324 325 323 322 322 322 322 322 322 320 319 319 319 318 319 319 319 320 321 320 319 319 320 321 319 320 321 318 317 317 317 316 316 316 317 317 318 323 325 325 324 322 321
302 302 302 302 302 302 301 302 302 303 304 304 304 305 306 306 307 307 307 307 307 307 308 308 309 308 308 308 311 313 315 316 316 314 313 315 320 324 327 327 324 323 323 323 323 324 323 323 323 322 323 324 323 322 321 320 320 319 318 318 319 319 319 319 319 319 318 319 318 318 322 322 318 318 317 316 317 318 317 318 319 320 323 324 323 323 322 319
302 303 302 302 302 302 301 302 303 303 303 304 304 304 305 305 306 307 307 307 308 308 307 308 309 309 308 308 309 311 313 314 315 314 312 313 316 320 324 325 323 322 322 320 319 322 323 324 324 322 323 325 324 323 322 321 320 320 319 318 318 319 319 318 318 318 318 319 318 317 320 319 317 319 319 317 319 320 319 319 318 318 321 322 322 321 319 317
302 302 302 302 302 302 301 302 302 302 303 303 303 304 304 304 305 306 306 307 308 308 307 308 309 309 309 309 309 310 310 310 311 313 312 313 316 317 319 321 320 321 322 319 317 320 322 324 324 323 323 324 324 324 323 321 321 321 320 319 318 319 319 318 318 318 318 318 318 319 319 318 317 320 320 318 320 320 319 318 317 318 320 321 321 319 318 317
301 301 301 302 303 302 302 302 302 302 302 302 302 303 303 304 305 305 306 306 307 307 308 309 309 309 310 310 309 310 310 309 309 310 310 311 310 309 311 315 316 318 321 320 318 319 322 324 324 323 324 325 324 323 323 323 323 322 320 319 318 318 318 318 318 318 317 317 318 318 318 317 319 321 320 319 320 320 318 317 316 317 318 319 319 318 317 316
Wind_Speed
43 42 41 41 39 36 35 33 30 30 36 41 41 37 38 38 38 43 41 38 39 35 35 35 33 32 32 31 29 28 25 22 18 16 16 24 27 19 19 22 14 11 17 18 16 13 11 10 10 9 6 4 1 2 2 1 1 0 1 2 3 3 4 2 1 2 5 6 3 4 2 1 5 3 2 2 1 2 4 4 5 7 8 8 13 22 24 24
43 42 41 41 40 37 36 34 31 34 37 39 41 37 37 39 38 41 43 40 40 38 36 36 35 34 34 32 30 28 23 20 17 16 25 28 26 23 18 18 18 15 18 19 17 15 11 9 10 8 4 3 3 2 1 2 2 2 2 2 4 4 2 1 4 4 4 7 5 5 2 2 2 4 3 2 4 5 4 4 6 7 7 7 13 21 22 23
44 42 41 42 41 38 37 35 33 37 38 37 39 37 36 40 38 39 43 42 41 41 38 37 36 35 35 33 30 27 21 16 13 17 29 27 23 28 24 18 19 20 21 19 17 17 13 11 11 8 4 3 4 3 2 2 2 2 2 3 4 4 0 4 4 5 4 5 6 5 3 0 2 2 3 2 4 6 6 5 7 7 8 8 11 18 21 21
43 42 42 42 41 39 37 36 36 38 39 37 38 36 35 40 40 39 43 44 44 43 40 38 38 36 36 33 29 26 19 8 10 16 24 24 24 27 26 22 22 22 23 19 14 17 17 15 13 9 5 3 4 5 4 3 2 3 3 4 3 5 1 5 5 6 5 4 4 6 2 2 2 2 2 3 3 4 6 6 8 10 12 12 10 16 20 20
43 42 42 42 42 40 37 38 38 37 38 38 37 34 32 37 40 40 44 47 46 43 40 39 38 37 36 32 30 27 17 2 6 18 22 23 25 26 27 26 26 24 25 20 12 16 19 15 11 8 6 4 5 5 5 5 3 2 4 5 3 5 2 6 6 5 4 2 2 4 2 2 3 1 2 4 3 2 1 1 3 6 14 16 13 16 18 17
44 43 42 42 43 41 39 39 37 37 37 38 37 35 33 35 38 38 42 46 46 43 40 40 39 38 37 35 34 27 15 3 5 21 27 25 27 29 30 27 27 26 22 16 11 15 16 11 9 7 6 6 7 7 6 7 6 4 4 5 4 4 2 4 4 3 2 0 2 2 0 2 1 3 3 6 5 2 3 5 6 5 14 21 17 17 15 14
44 44 43 42 42 42 42 41 38 36 35 35 36 35 34 37 38 35 38 44 43 41 40 41 41 39 38 36 28 18 11 4 5 20 30 31 30 31 34 29 25 23 17 11 10 12 11 9 11 8 7 6 8 9 7 8 9 6 5 6 7 5 2 4 4 1 0 0 2 2 1 0 4 3 0 3 6 1 4 6 6 6 15 21 15 14 14 15
46 45 44 42 42 41 43 43 40 38 34 33 34 34 35 37 38 35 36 43 44 42 41 43 43 40 41 35 19 6 8 5 5 20 32 34 33 31 34 30 24 20 13 10 10 10 8 10 12 8 7 7 7 9 8 6 7 7 7 6 5 4 3 6 5 4 3 1 2 2 1 4 4 1 2 2 6 3 5 7 6 4 11 14 11 12 12 14
46 47 44 41 40 40 41 42 41 40 37 35 34 36 37 36 34 31 32 40 46 45 42 44 44 44 40 29 14 3 13 12 5 20 34 35 36 33 31 27 23 20 16 13 8 6 6 8 10 8 5 5 8 9 8 6 5 7 9 8 3 4 4 6 5 5 4 2 3 2 4 5 2 3 2 7 9 5 6 7 6 5 7 9 9 11 11 11
48 50 45 40 38 38 39 40 40 40 39 38 37 36 38 38 34 27 26 34 45 45 43 42 43 47 36 21 12 4 18 21 8 24 36 35 38 35 30 26 23 23 19 12 3 2 1 4 5 4 1 2 6 6 7 8 3 3 10 10 6 6 5 6 5 5 4 2 5 4 5 4 2 2 4 4 5 5 8 6 6 6 6 7 7 9 11 11
47 46 42 38 38 39 39 39 40 40 39 37 36 36 37 39 38 30 24 30 44 43 43 43 42 46 31 18 12 3 18 25 14 27 36 35 40 37 31 27 24 24 20 12 5 3 2 8 9 2 1 3 4 2 3 7 3 2 7 7 5 5 5 6 6 5 4 2 5 4 5 2 2 3 5 2 3 5 6 6 7 7 7 7 7 8 9 11
46 41 39 39 38 39 39 38 40 39 39 36 35 36 36 35 36 33 23 29 46 44 44 45 43 42 25 12 9 5 21 26 17 26 35 36 39 36 29 26 24 23 21 17 9 5 3 7 11 5 2 4 2 1 2 3 4 2 2 4 4 5 5 7 7 6 6 3 5 3 4 5 5 6 8 6 5 5 5 6 7 7 7 7 7 7 7 10
47 42 40 40 37 38 38 37 37 37 36 36 36 35 38 36 33 32 22 26 48 49 45 47 46 39 20 7 8 14 25 26 19 23 32 34 34 31 24 20 21 19 20 21 14 8 3 3 8 8 6 4 1 0 3 1 3 1 2 3 4 4 6 8 8 7 7 5 7 5 2 6 7 10 13 10 8 7 6 7 7 7 6 7 7 7 7 9
44 42 40 39 36 37 37 34 33 34 34 36 39 37 37 38 34 31 22 24 46 54 46 48 46 32 14 4 11 22 27 24 21 24 30 31 28 26 21 19 19 17 19 18 14 11 7 3 7 5 5 3 2 3 2 2 2 4 4 3 3 3 5 9 11 10 7 5 8 6 4 6 4 6 10 10 8 9 7 7 7 7 6 6 7 7 7 9
42 41 40 40 37 36 35 33 32 35 37 37 40 39 36 37 34 29 23 25 41 55 49 49 41 23 9 3 11 25 28 24 23 25 29 31 28 24 22 22 18 16 17 16 14 12 9 9 7 2 2 2 4 3 1 3 3 4 5 3 4 4 4 6 11 12 9 4 7 7 3 7 6 6 5 7 8 8 7 7 8 8 8 7 6 7 6 7
43 42 41 41 38 36 34 36 37 36 37 36 37 37 34 36 33 28 25 25 36 54 47 38 32 19 7 4 14 24 23 21 24 26 28 31 30 25 26 25 19 18 17 16 17 15 14 11 4 1 0 2 4 4 3 3 4 4 5 3 5 6 4 2 8 13 11 6 6 8 4 5 5 8 6 6 8 8 6 7 8 8 9 9 7 7 6 6
41 41 41 39 36 35 36 38 38 35 35 34 33 32 30 33 29 23 24 25 33 55 44 30 31 20 4 8 18 20 16 20 26 27 27 30 30 28 29 22 17 19 16 16 18 15 13 8 2 2 1 3 5 6 6 5 5 5 5 4 5 8 6 3 5 8 10 8 7 9 8 9 4 3 5 7 7 7 7 7 8 7 7 8 7 7 7 7
38 40 39 37 36 37 37 37 36 34 34 33 31 29 29 33 27 19 22 25 26 45 36 26 29 15 3 9 15 18 21 23 27 28 26 28 29 29 28 20 16 18 14 11 11 10 8 4 2 4 4 5 6 6 7 6 7 7 7 6 5 6 8 6 5 7 11 10 9 9 10 13 9 4 5 7 7 7 8 8 7 8 8 7 8 8 8 8
38 39 38 36 37 38 37 36 35 35 35 32 27 24 23 24 18 13 17 19 17 21 15 14 16 7 7 13 15 22 27 26 26 25 26 27 28 28 25 20 17 17 13 7 9 9 7 3 3 5 6 8 9 9 8 7 10 10 9 6 5 6 6 6 5 7 11 9 8 9 10 11 10 9 8 7 8 9 10 9 8 8 8 7 7 7 8 8
37 36 36 37 40 40 37 36 35 35 36 33 29 23 15 12 10 7 9 10 12 10 11 19 18 9 12 15 19 28 28 27 24 22 28 29 29 26 18 15 13 11 11 9 10 9 6 5 6 8 9 12 13 13 11 10 8 8 8 8 7 6 5 4 5 7 9 7 7 10 10 11 9 9 9 8 9 10 11 10 9 8 7 7 8 8 9 9
35 34 31 34 38 37 36 34 34 35 36 37 32 17 8 11 10 3 3 5 12 13 12 27 26 11 16 20 26 33 24 21 21 20 31 33 29 24 14 13 13 9 10 11 10 7 6 8 8 9 11 12 14 13 13 13 7 4 5 7 7 7 4 2 5 6 4 2 5 7 9 11 9 8 9 8 10 11 11 11 11 11 9 8 8 9 8 7
35 33 28 29 30 31 33 32 32 33 34 35 27 11 6 14 12 5 5 3 10 14 12 23 23 12 20 27 33 37 21 15 18 18 29 30 23 19 14 14 14 10 11 11 8 8 8 9 8 11 11 11 12 12 13 13 9 3 3 4 5 6 3 4 6 5 3 1 3 4 7 9 7 8 9 9 9 9 10 11 12 12 12 11 10 9 9 8
35 33 29 27 28 30 32 32 32 30 29 27 20 12 9 18 19 8 5 2 5 10 12 18 18 17 21 20 27 34 18 14 17 16 27 27 16 15 16 16 14 11 13 12 10 9 8 7 11 13 10 11 12 12 12 11 9 4 2 5 3 4 4 2 4 5 4 2 3 3 5 7 7 7 8 9 9 9 10 13 13 11 13 14 12 10 10 10
33 33 31 30 31 30 30 31 28 23 22 21 15 13 17 22 22 13 5 2 6 6 13 20 16 17 21 21 32 33 17 14 16 17 27 25 14 13 15 16 15 12 12 14 13 8 5 6 12 14 12 13 13 12 11 8 6 5 5 6 3 4 3 3 4 5 3 3 3 2 4 6 7 8 10 9 10 12 12 13 13 13 12 11 11 11 11 11
32 32 32 34 32 30 32 27 19 17 18 14 10 15 23 23 20 17 7 2 4 5 11 20 12 11 19 23 30 25 15 14 14 17 25 24 19 14 11 12 11 12 15 16 13 7 5 10 14 15 13 14 12 11 12 8 5 5 7 8 5 6 3 7 6 3 0 3 4 3 2 5 5 7 9 7 8 12 12 13 15 14 12 10 9 11 11 10
33 33 34 34 33 34 29 15 11 18 15 7 11 19 23 20 19 18 8 2 3 4 10 17 9 14 22 17 18 18 15 12 11 19 23 21 20 14 10 9 5 11 16 13 9 4 6 13 16 16 15 15 13 11 12 10 6 4 6 10 8 4 2 6 6 3 1 3 3 4 3 4 5 7 8 5 6 10 10 13 16 13 11 10 10 11 11 10
36 36 35 34 34 34 20 7 13 18 9 6 18 23 21 22 22 19 7 4 4 3 9 10 7 19 22 16 20 18 13 11 8 13 20 21 20 12 11 12 7 11 12 8 6 4 10 17 17 18 17 14 12 10 11 12 8 3 3 8 9 4 2 4 5 3 2 0 1 3 2 2 6 8 8 6 9 11 10 12 13 12 12 11 11 11 12 12
37 37 36 33 34 28 15 14 17 8 6 15 25 27 26 28 25 15 4 4 3 4 6 2 5 16 18 19 23 14 14 22 14 12 18 19 16 10 12 15 15 15 13 11 7 4 12 18 18 19 15 12 11 9 9 12 8 3 3 5 7 5 3 4 4 3 0 3 1 4 3 2 6 6 6 6 10 14 14 12 10 10 12 12 13 13 13 13
37 36 33 33 30 21 17 22 16 6 16 26 28 30 33 29 18 7 2 4 1 2 2 2 6 13 16 20 20 13 16 18 12 12 13 9 5 3 8 13 15 16 15 13 6 2 8 12 15 16 11 10 11 7 9 11 7 3 2 6 6 3 4 4 2 1 1 1 4 5 5 3 5 5 5 5 8 13 12 9 8 9 11 13 13 12 11 9
36 33 33 34 25 17 18 17 12 16 25 27 29 34 33 22 9 5 6 4 1 1 1 3 5 12 22 21 14 15 18 10 10 15 9 3 1 3 3 6 7 12 12 8 3 1 1 2 7 10 9 9 8 4 7 10 8 5 5 7 7 4 5 3 1 4 2 3 5 8 9 5 3 5 6 5 7 9 7 6 6 8 10 12 12 10 10 8
35 32 34 30 22 19 16 9 12 22 25 25 29 28 20 9 3 6 6 1 2 1 2 3 8 14 24 23 13 16 19 13 16 18 9 6 4 3 6 5 1 7 8 4 3 1 3 3 5 4 3 6 7 2 2 8 10 8 5 6 5 3 4 2 2 4 1 4 4 8 10 9 6 5 6 7 7 8 7 7 7 8 8 8 8 8 8 8
35 34 32 25 21 20 14 13 19 22 23 27 23 12 8 5 3 4 4 1 2 2 1 3 9 16 22 21 16 18 19 15 17 20 15 13 9 8 13 12 9 9 9 8 6 4 5 6 5 4 1 5 9 5 3 6 8 6 5 7 5 2 1 1 1 1 4 4 2 4 6 7 8 7 7 10 7 7 7 7 6 6 6 6 5 5 4 5
38 34 28 22 20 16 15 22 25 21 23 25 14 3 3 6 6 3 3 3 1 1 2 2 7 18 24 18 14 17 17 15 19 22 19 17 13 12 13 14 14 8 7 13 10 6 4 2 2 5 1 5 11 9 5 5 7 7 7 7 6 4 3 4 4 2 4 3 2 1 1 2 5 4 10 16 16 10 7 7 7 6 5 5 5 6 6 5
38 33 25 20 18 15 19 26 26 23 22 16 7 3 4 6 5 3 3 3 1 3 4 3 6 19 23 15 13 17 14 12 20 22 18 16 13 12 11 12 15 7 6 12 8 8 9 2 5 10 6 8 12 11 9 6 6 7 5 5 6 5 4 5 4 3 3 0 2 1 2 3 3 2 9 14 15 10 4 5 8 7 5 5 5 6 6 5
35 30 24 19 17 19 24 25 25 25 17 7 3 3 6 6 3 3 3 3 3 4 3 4 5 15 18 11 14 19 12 11 22 20 16 16 12 13 13 13 19 13 10 12 6 8 11 5 8 9 4 12 14 8 9 9 5 5 3 5 6 4 3 2 2 3 4 2 1 3 3 4 4 5 7 6 7 7 5 5 7 8 6 6 5 5 6 5
30 26 21 17 18 22 26 25 27 25 13 4 2 3 3 2 1 3 4 4 4 6 6 3 5 10 14 9 11 16 8 9 22 18 12 16 15 17 16 12 18 18 13 12 7 8 10 4 10 7 1 11 13 8 12 11 6 5 5 7 5 1 4 3 1 0 2 1 3 4 4 4 2 7 9 9 8 7 7 7 8 8 7 7 6 6 6 6
24 19 15 14 18 23 24 25 26 20 9 3 3 2 1 1 0 2 3 4 4 5 8 6 3 3 9 8 9 15 10 10 18 14 9 13 13 17 18 12 16 18 15 13 6 6 7 1 3 7 5 8 4 5 10 7 4 6 7 7 4 4 3 2 1 0 1 3 3 4 6 4 2 5 6 9 10 8 8 8 7 7 7 7 7 7 7 8
21 15 11 12 19 23 22 26 24 14 4 2 3 1 1 1 0 2 2 2 3 4 5 6 1 2 4 6 8 14 14 12 14 12 10 10 8 15 19 13 15 19 16 15 8 5 9 4 3 4 7 7 1 5 8 4 1 4 5 6 5 0 2 3 3 2 4 5 4 4 7 5 6 5 2 6 10 8 8 8 7 8 8 8 7 7 8 8
18 10 6 9 19 24 24 25 19 8 1 2 3 1 1 1 1 4 6 2 3 4 4 3 1 2 1 4 8 14 15 15 16 12 10 9 7 15 21 14 15 20 18 16 10 6 9 6 0 3 3 6 4 5 9 7 2 0 3 6 5 2 3 5 3 2 3 4 4 3 3 4 7 7 6 8 10 10 10 8 8 9 9 9 8 7 8 7
10 5 4 9 19 25 26 20 10 3 1 2 2 1 1 2 1 5 8 5 2 2 2 3 2 1 0 2 3 9 12 14 17 13 9 11 10 15 21 18 17 21 20 17 12 8 7 6 4 1 1 5 7 7 11 13 9 5 6 9 7 3 1 2 3 2 2 3 3 4 4 5 5 6 10 11 11 11 11 8 8 8 8 8 7 7 6 6
5 4 4 9 20 26 22 12 3 2 2 1 1 2 2 2 2 4 7 7 4 2 1 4 4 2 2 1 3 4 8 11 15 12 8 12 12 11 18 22 20 21 20 15 12 10 7 6 7 5 4 8 9 6 5 8 10 8 7 8 8 5 3 2 4 5 3 2 3 3 5 7 5 3 7 9 8 9 10 8 7 7 7 7 6 7 7 6
5 5 4 11 23 24 13 4 2 2 1 0 2 3 3 3 3 3 4 6 4 3 3 4 4 3 3 1 1 2 2 7 14 13 8 14 16 12 17 24 23 21 18 13 12 10 5 4 7 6 5 4 3 2 3 2 6 8 5 5 7 6 5 6 6 5 4 3 2 1 4 6 5 0 3 5 4 5 7 8 7 6 7 7 6 7 7 6
5 6 7 14 23 18 6 3 4 2 1 2 2 3 4 3 2 3 3 4 4 3 3 3 3 2 2 1 1 3 4 1 12 15 12 15 17 12 16 23 23 21 17 12 11 7 5 5 7 5 2 2 3 2 4 5 3 6 7 7 8 9 10 7 4 3 4 5 3 3 5 6 5 4 4 4 5 5 3 6 8 7 6 6 7 7 7 6
6 6 5 10 17 11 2 3 5 3 3 3 3 3 3 2 3 3 3 3 3 3 2 2 3 2 2 3 2 3 5 2 8 13 11 12 12 11 18 25 24 20 16 12 12 7 3 6 9 7 4 2 3 2 1 2 4 7 10 11 10 11 11 7 3 1 2 5 6 5 7 7 4 4 4 3 5 6 2 3 6 7 6 7 7 6 6 6
7 5 3 4 7 6 3 1 3 4 5 4 3 4 3 2 3 3 4 3 1 2 2 2 4 5 4 4 3 3 4 3 2 3 2 7 7 8 18 25 23 20 16 13 14 8 4 7 9 11 11 9 8 9 8 8 7 6 8 12 14 14 12 9 5 3 4 7 7 6 9 8 1 3 4 1 4 5 5 5 5 5 6 6 6 6 5 6
5 4 3 3 1 2 2 2 0 4 6 5 4 4 4 3 3 4 5 4 1 1 3 2 3 4 3 4 4 3 3 3 2 4 3 3 2 4 17 24 22 21 18 15 16 9 3 6 10 12 13 14 12 8 7 8 8 8 10 13 15 14 12 9 5 7 10 8 4 7 13 11 4 4 6 5 6 6 6 6 5 5 5 5 6 5 5 6
3 4 5 4 2 2 2 2 2 3 5 6 3 3 5 5 4 5 3 1 3 3 1 1 1 1 2 3 3 3 2 2 2 1 4 3 3 2 15 22 19 20 18 14 14 9 4 6 12 13 14 14 9 7 11 12 12 15 15 15 16 15 14 11 11 14 12 6 7 15 17 15 13 8 7 7 8 7 6 7 7 7 6 6 6 6 6 6
1 3 5 4 3 4 4 3 3 2 3 6 2 3 6 5 4 4 2 1 3 3 0 1 1 1 2 2 2 3 4 2 2 0 3 4 3 4 12 15 13 17 17 13 10 8 5 8 13 13 13 11 9 10 14 14 13 15 17 17 17 18 18 17 18 18 13 8 15 19 14 15 18 11 9 9 8 8 8 7 7 6 7 7 7 7 7 8
1 3 4 2 1 4 5 4 4 3 3 5 2 3 7 7 6 4 2 2 3 3 2 0 2 4 2 0 2 1 3 3 2 1 1 4 3 3 9 9 5 8 13 11 7 5 6 9 11 11 11 10 10 12 13 14 13 13 17 18 18 18 21 22 20 19 15 14 21 20 11 15 19 11 10 11 8 7 5 5 6 7 8 8 8 9 8 8
1 2 4 2 1 4 5 4 5 5 3 4 3 2 5 7 7 5 4 4 4 4 5 3 2 5 5 3 2 1 1 2 3 2 3 2 3 1 4 5 2 5 9 7 4 4 6 10 11 10 8 8 10 12 13 15 15 15 17 19 18 18 19 22 22 19 16 18 25 21 14 18 16 8 8 9 7 6 5 7 7 8 8 9 9 9 8 8
3 3 2 2 2 4 5 4 4 4 4 4 4 4 4 5 7 6 5 5 5 5 7 6 4 3 4 5 5 5 3 2 3 2 3 3 2 5 3 3 2 5 7 5 3 4 7 8 8 8 7 9 11 14 14 13 12 12 15 18 21 22 21 22 23 19 16 19 22 19 16 17 10 5 7 6 6 8 8 9 9 8 9 10 10 9 9 9
4 4 5 1 4 4 4 4 3 3 4 4 5 5 5 5 6 7 4 4 6 5 6 7 6 3 3 6 7 6 5 5 5 3 1 2 7 8 7 7 8 2 4 5 5 6 8 8 6 7 9 11 11 11 10 9 8 9 15 22 27 27 23 20 18 17 18 20 18 15 18 16 4 5 7 8 8 10 10 10 9 9 10 10 10 10 10 10
Wind_Direction
234 233 232 228 227 225 224 223 220 223 227 224 225 225 220 221 218 210 209 212 210 209 211 209 206 203 198 195 189 186 186 184 185 183 198 215 206 196 198 209 223 198 186 182 183 191 189 209 207 186 175 167 188 118 177 190 117 238 158 206 229 228 245 223 163 113 129 123 123 150 211 220 132 153 121 121 238 132 147 139 99 79 77 85 108 126 136 141
231 229 228 226 225 224 222 221 219 223 226 224 224 226 222 218 218 211 208 209 207 207 209 207 204 201 197 194 190 187 181 181 189 201 217 219 206 198 194 210 223 204 186 183 191 194 188 206 194 178 190 174 161 145 190 179 146 211 216 227 229 223 243 14 52 52 98 114 118 114 71 329 100 142 139 152 199 173 171 162 141 117 99 101 121 132 138 144
229 225 225 225 222 222 222 219 220 222 223 222 220 223 221 215 217 213 207 207 205 204 206 204 202 199 197 194 190 184 170 173 196 217 225 221 215 213 203 208 219 203 188 188 197 197 195 202 185 178 209 212 177 167 186 177 170 207 220 230 242 251 57 58 64 67 56 87 116 107 84 75 55 93 143 195 214 183 191 183 163 155 142 144 142 142 146 153
228 223 223 221 217 218 220 217 220 221 221 221 216 218 218 214 218 216 208 205 203 202 203 201 199 198 196 192 186 170 152 172 215 218 223 215 216 213 196 201 210 197 187 190 204 206 202 199 188 185 202 222 201 181 182 164 153 185 211 224 265 304 358 83 77 78 54 29 94 108 124 158 87 49 155 213 240 196 207 192 180 181 158 154 160 155 157 164
227 221 217 214 213 215 214 215 219 219 219 218 213 213 213 214 220 218 209 204 202 200 199 199 196 195 192 184 175 156 139 179 212 200 208 202 201 196 186 193 197 189 185 192 217 220 211 202 189 189 204 222 214 199 193 180 182 212 227 242 298 332 348 85 71 69 65 15 88 129 176 125 88 45 213 229 244 187 223 112 160 178 155 156 163 160 163 170
226 220 213 209 209 209 209 213 215 213 215 214 211 211 211 211 216 218 211 201 199 198 196 197 192 190 187 176 167 154 152 208 168 186 193 188 188 186 184 186 185 184 183 194 227 224 213 199 183 194 204 213 219 211 202 190 191 224 233 237 259 307 333 91 84 52 42 213 154 154 21 68 150 233 206 220 241 160 81 60 36 44 141 154 159 159 166 173
220 215 209 206 205 206 208 211 209 207 209 208 206 208 210 210 210 216 215 203 199 196 195 195 190 187 181 168 165 165 181 202 130 180 184 179 182 182 186 186 179 177 177 195 221 212 202 187 184 200 201 204 225 213 208 204 189 203 229 224 225 236 210 106 112 122 14 175 93 70 31 292 224 250 111 219 253 215 95 91 61 56 131 148 156 164 174 177
214 209 205 204 204 206 209 210 209 211 211 208 204 203 207 210 208 212 216 207 199 196 196 194 188 183 175 163 162 182 207 189 118 179 180 175 176 176 181 182 176 173 167 183 207 205 196 194 190 198 204 199 224 215 205 211 194 199 233 234 208 209 169 118 133 162 164 150 80 82 206 249 223 140 10 248 259 240 130 112 99 95 136 150 163 172 179 179
212 207 202 204 204 205 209 211 212 213 213 211 207 204 206 209 208 211 215 203 194 195 194 191 186 178 172 165 155 181 201 183 138 182 180 173 173 170 170 170 172 173 160 166 211 235 204 211 206 205 220 212 226 222 195 204 209 193 222 236 174 181 177 136 155 166 169 178 136 164 226 241 194 103 251 239 241 217 136 127 128 145 161 164 169 176 185 182
211 207 200 202 205 205 209 211 212 211 210 211 209 206 207 210 213 216 222 205 193 194 192 190 184 173 172 169 159 202 191 175 165 183 179 175 174 171 170 169 171 174 164 160 189 337 290 278 255 215 292 300 244 228 188 198 226 181 215 226 186 187 193 157 182 175 167 189 162 206 243 216 147 158 240 242 222 168 135 147 155 164 183 184 179 181 188 188
209 205 199 202 204 206 209 209 209 208 208 209 210 209 206 212 219 224 236 215 197 194 192 191 182 172 172 174 175 193 175 171 170 180 178 175 175 173 176 176 172 171 164 149 130 83 29 341 342 359 88 320 264 235 206 197 215 274 217 212 188 192 191 171 208 189 150 188 181 211 282 242 159 202 224 208 135 140 150 172 172 181 194 192 190 182 186 192
204 201 201 203 202 205 208 207 208 209 211 213 213 210 204 206 214 220 235 218 199 194 192 190 183 174 171 183 195 137 158 168 164 172 176 174 175 174 175 177 175 172 163 155 156 147 94 360 356 24 45 317 245 167 315 181 169 279 205 182 192 205 212 196 210 195 162 187 166 126 312 250 215 215 218 208 169 156 181 188 179 194 201 195 194 183 185 193
199 198 202 201 199 206 209 209 211 212 213 214 211 207 203 202 209 215 228 219 200 192 189 188 182 175 170 187 180 145 156 167 164 168 174 174 174 174 173 175 175 173 166 160 164 178 178 20 22 25 1 338 166 78 321 168 137 155 183 208 205 207 227 208 204 200 183 177 151 133 280 239 225 224 214 205 178 169 194 201 186 192 203 202 195 184 186 193
194 194 198 199 201 207 210 210 209 207 205 207 204 201 201 201 210 216 230 230 200 190 189 186 180 174 174 173 158 156 158 164 170 170 173 175 172 172 172 170 169 170 170 169 176 196 205 116 70 24 340 341 321 328 333 191 181 179 191 216 216 222 228 201 192 193 187 170 148 148 240 245 253 241 209 195 175 171 192 205 195 190 199 207 199 189 188 194
194 193 195 201 204 206 208 204 200 202 201 200 199 199 200 201 210 216 232 239 201 187 187 183 179 172 171 185 161 162 158 161 172 172 173 175 171 170 168 163 162 163 168 176 177 175 161 128 93 53 326 311 279 273 172 183 195 198 201 197 208 232 252 196 181 187 187 170 155 153 237 250 246 255 213 165 161 178 199 209 203 196 194 200 202 196 193 195
196 194 195 200 203 204 203 197 195 199 198 197 197 198 200 200 207 216 228 240 202 184 180 179 181 176 164 156 157 163 163 163 170 170 171 174 173 170 165 160 154 148 151 157 152 143 137 128 93 77 146 265 230 190 171 189 189 208 215 201 198 205 245 209 173 189 181 151 175 183 229 254 226 241 222 156 165 185 204 220 214 207 197 192 195 198 201 201
197 194 195 197 199 198 195 193 193 194 194 196 195 194 196 196 203 214 225 244 206 180 175 175 178 181 169 136 151 163 166 162 166 168 170 175 172 165 163 159 150 146 140 140 144 140 139 133 113 132 142 227 215 184 177 196 186 190 207 223 224 199 209 200 159 190 177 161 193 197 230 248 233 225 195 170 184 193 203 223 225 224 214 192 186 192 200 204
196 192 191 192 194 192 189 188 187 186 189 190 189 187 189 191 197 211 225 242 205 174 174 178 175 181 210 165 159 161 160 160 164 164 168 175 169 163 164 157 151 147 130 133 152 157 155 144 155 157 170 202 213 198 183 188 180 180 195 210 235 214 206 196 158 177 183 188 204 196 223 244 247 238 197 180 194 208 217 225 230 233 226 202 186 191 198 203
190 189 189 190 190 187 184 182 181 181 181 179 174 167 169 178 189 213 224 229 205 173 167 170 176 178 157 170 165 154 154 155 155 159 166 171 165 162 162 157 160 155 140 148 172 173 160 135 169 185 190 191 200 206 198 190 185 192 198 199 227 230 217 200 145 161 182 189 208 209 227 241 241 235 222 201 197 212 223 225 232 231 225 213 195 193 201 205
185 185 187 188 183 181 179 178 178 178 178 172 157 146 150 162 176 218 221 217 225 209 142 149 182 190 146 157 154 145 147 151 152 161 167 163 157 156 158 159 164 166 163 166 168 167 157 165 196 195 188 188 193 202 208 209 198 199 202 198 218 231 231 206 152 163 178 183 206 215 235 245 241 238 231 217 206 213 219 219 225 225 222 218 208 200 199 205
178 174 172 170 169 172 174 176 176 176 178 172 158 154 175 178 179 197 191 226 244 231 171 161 177 175 140 150 152 149 148 153 157 163 166 162 157 156 160 165 165 177 179 161 147 146 167 196 203 188 186 189 195 201 212 221 217 216 216 203 207 221 233 144 132 165 168 174 221 221 242 249 243 243 238 222 215 218 215 215 219 222 224 222 214 209 204 203
170 166 160 158 162 164 165 170 171 170 172 168 164 180 191 170 166 112 102 240 243 222 192 171 170 141 141 156 159 155 147 148 156 162 167 167 168 165 162 170 173 179 171 153 142 155 189 213 191 180 188 191 203 210 213 225 231 237 260 237 210 200 186 98 115 148 121 87 247 251 266 262 253 249 243 231 229 228 217 217 220 218 223 225 219 213 211 210
166 164 161 161 161 157 156 161 162 163 167 166 171 195 172 160 167 148 93 8 266 215 183 175 168 144 153 161 155 152 145 149 157 163 169 170 175 171 164 171 176 172 168 166 170 174 192 205 177 176 194 196 204 216 214 225 234 209 229 256 234 186 193 156 149 149 135 215 285 325 293 278 272 266 257 240 238 243 230 227 227 219 221 224 222 217 211 208
164 163 164 165 160 156 156 158 158 159 166 168 172 174 152 149 160 154 100 16 290 244 177 174 175 160 161 158 156 158 152 155 157 159 170 173 167 166 172 173 170 173 180 176 173 179 177 164 168 175 197 203 198 211 213 217 225 196 207 239 229 212 212 104 135 153 146 238 269 325 306 280 251 243 250 240 230 238 236 232 233 226 222 222 222 226 221 212
165 163 164 165 164 163 160 157 157 159 164 165 154 149 143 137 143 140 104 2 274 273 174 170 187 171 149 151 162 157 136 154 163 159 171 177 166 160 172 172 171 178 180 172 169 188 181 158 169 179 196 206 201 208 210 207 219 206 212 227 238 248 204 114 132 143 78 260 202 168 273 280 253 236 242 235 218 230 232 229 233 230 223 221 220 227 231 225
165 163 161 162 163 160 157 156 157 156 156 159 154 153 148 139 137 134 111 330 246 255 178 165 182 170 150 153 161 141 137 165 162 155 166 176 170 162 165 166 182 182 172 168 170 194 184 167 174 184 191 202 207 212 207 201 214 225 209 209 222 261 76 122 145 132 245 258 178 168 217 270 300 280 263 276 256 241 230 224 228 227 221 218 219 222 225 227
162 160 157 158 158 156 154 147 152 154 151 152 153 150 145 142 136 123 100 287 239 204 178 163 171 172 163 158 154 147 150 142 121 161 174 177 174 168 169 165 173 182 165 157 181 191 178 174 178 185 188 197 209 211 200 193 197 242 234 189 194 201 112 137 158 176 220 69 158 211 200 265 285 273 264 281 282 270 249 231 224 217 216 216 220 220 218 221
160 159 156 154 156 159 158 146 144 149 151 144 144 140 137 138 134 117 103 248 204 145 177 165 137 166 162 153 157 151 135 137 143 182 184 182 178 173 184 178 173 176 166 167 187 179 177 184 184 183 187 196 206 205 180 175 182 251 265 168 168 184 155 133 149 213 257 60 249 217 149 249 262 262 253 234 252 263 252 238 223 210 212 214 219 221 218 220
159 157 155 155 156 162 163 154 146 146 147 140 137 138 136 131 122 109 183 228 190 91 181 136 130 158 152 150 160 147 135 148 155 158 169 183 188 198 187 176 167 167 172 179 182 147 183 194 187 183 193 195 196 192 165 170 186 236 197 108 90 92 95 99 147 172 59 2 232 190 158 223 258 255 243 209 227 249 248 239 228 212 209 212 217 221 218 216
157 155 157 158 156 154 152 149 144 149 148 140 137 138 133 128 124 163 199 213 105 59 238 158 156 158 150 151 163 153 146 146 131 140 152 134 44 311 116 126 149 159 172 176 132 114 172 185 188 187 198 187 174 178 170 168 164 145 124 94 76 63 71 68 28 67 52 267 212 179 176 192 257 242 217 210 218 229 236 232 234 226 213 211 212 214 217 213
155 156 158 158 156 152 146 135 139 150 152 145 141 138 130 124 170 186 192 215 88 196 258 175 166 160 155 155 158 154 146 135 141 150 151 132 153 206 133 112 113 149 161 149 89 121 130 144 185 172 176 158 132 114 132 143 146 138 131 116 99 69 60 51 23 69 221 247 191 186 184 183 228 233 217 242 220 198 213 212 227 237 215 201 198 201 213 209
154 156 157 156 155 153 153 155 150 151 154 150 146 144 132 138 201 198 176 120 124 193 215 191 181 165 159 157 155 155 148 141 155 157 156 161 168 176 169 170 168 157 170 175 162 164 161 177 169 94 31 155 133 115 87 136 159 156 146 140 129 116 101 176 187 169 230 245 231 212 187 194 234 238 247 272 249 195 205 208 225 238 193 150 145 153 156 154
156 156 155 154 152 149 157 162 157 151 151 152 154 164 145 165 191 182 147 155 169 144 128 257 209 167 160 162 158 154 147 149 162 161 162 167 167 180 187 177 166 158 170 173 165 152 157 273 176 141 182 181 161 159 162 169 177 176 164 157 160 160 172 205 199 209 236 248 271 246 135 238 270 247 227 245 247 228 212 208 213 222 187 144 137 142 132 135
157 153 149 150 151 148 154 161 163 158 150 148 154 167 172 182 172 122 146 181 116 114 149 252 213 170 166 168 160 153 148 156 162 162 166 167 169 183 184 176 175 160 137 164 169 162 169 237 197 175 168 178 185 180 162 147 164 185 171 158 180 180 185 196 184 203 209 66 313 251 162 196 210 231 215 226 246 249 240 224 204 202 193 146 135 148 148 161
154 149 143 142 143 145 150 156 164 163 152 131 128 176 184 176 148 135 166 167 133 134 169 270 226 176 171 168 164 162 157 157 160 163 172 170 174 180 173 178 184 175 154 164 172 173 183 202 176 176 171 172 181 176 145 132 152 201 165 167 206 205 172 161 170 202 166 99 275 223 236 222 204 273 261 236 258 254 245 243 204 191 177 148 157 181 182 195
142 140 139 132 135 147 151 154 160 160 149 120 142 190 196 156 111 153 151 152 169 148 146 227 249 190 176 165 167 169 154 148 161 164 175 175 177 180 177 182 186 183 173 167 161 174 188 189 157 158 213 180 177 167 161 158 158 184 188 189 199 106 102 125 225 252 107 216 227 186 250 282 277 282 262 229 238 243 233 231 213 199 173 168 198 205 201 215
130 130 130 124 140 151 152 153 153 148 136 146 185 171 98 4 61 140 125 142 166 138 141 185 244 199 177 166 166 167 145 141 163 164 166 175 181 179 177 183 188 189 182 169 168 177 168 94 163 166 161 182 178 127 166 178 140 161 194 183 126 47 50 112 189 123 126 240 241 181 219 239 211 262 254 213 218 229 227 220 212 207 187 190 213 210 204 211
124 122 112 120 147 155 154 151 143 126 105 162 182 157 55 353 276 30 29 117 148 136 155 183 206 28 180 173 164 164 154 151 167 167 160 170 179 175 176 182 190 193 186 171 169 163 148 100 327 207 161 168 144 117 167 208 116 161 189 160 133 136 216 171 182 190 184 224 261 221 215 214 209 224 219 198 207 216 226 212 197 202 198 203 217 213 209 208
118 115 98 129 152 154 149 144 133 108 79 169 168 195 105 95 33 8 357 339 156 150 161 167 97 19 226 185 167 167 167 164 166 164 165 176 176 175 179 179 184 191 188 178 171 157 157 146 31 265 181 163 172 170 181 189 173 185 189 173 179 209 184 178 193 190 169 204 254 257 220 227 224 206 188 197 198 202 214 207 198 201 198 205 212 206 208 204
119 106 100 139 150 148 139 130 117 97 163 175 146 125 86 91 53 11 356 349 96 133 176 153 126 80 69 285 215 176 172 167 168 170 173 178 173 176 184 182 178 185 186 184 177 156 159 156 136 173 193 162 183 203 193 185 179 180 185 183 187 185 128 161 212 213 154 178 232 253 249 256 244 202 197 201 194 197 206 204 205 203 191 192 185 172 179 181
122 105 112 146 149 145 134 118 104 153 163 164 109 104 100 98 85 34 1 357 37 48 73 123 119 110 123 301 298 206 180 170 173 177 173 179 180 180 187 184 176 177 179 184 183 170 170 167 145 150 179 186 195 198 181 184 184 181 187 184 181 178 136 139 213 213 190 191 195 210 253 270 266 202 186 189 182 190 198 195 199 193 169 155 143 143 154 160
116 108 130 158 154 148 137 118 131 147 153 102 116 118 111 96 77 57 20 11 40 48 38 87 110 97 105 137 340 334 219 177 177 181 177 185 193 192 185 183 177 173 175 182 183 169 132 119 135 143 170 184 182 132 65 93 174 183 202 191 174 177 174 185 208 201 195 215 162 152 278 277 270 266 126 151 152 166 183 171 161 161 149 143 147 155 161 171
97 108 126 157 162 157 149 146 139 130 120 82 82 107 103 87 77 72 45 29 44 55 48 86 119 104 87 132 99 26 0 227 186 185 183 190 198 191 173 174 174 173 177 182 182 166 88 104 131 119 103 54 48 43 15 27 106 180 209 202 183 191 197 201 206 163 189 216 174 190 255 262 278 324 33 71 87 88 106 130 134 145 151 158 168 169 172 180
101 106 113 159 171 178 209 158 154 163 137 84 72 114 103 75 91 88 64 48 37 36 65 99 93 86 112 115 99 64 23 334 201 192 189 191 193 174 165 173 176 178 186 183 178 184 163 148 143 131 142 133 81 89 246 232 202 201 205 202 197 198 196 209 244 185 218 223 177 186 242 243 265 319 348 45 97 110 119 148 149 157 168 173 170 167 171 171
116 100 79 152 179 206 248 176 158 166 150 123 122 133 120 94 102 108 99 87 41 21 51 77 74 78 113 115 91 74 53 48 211 234 213 181 179 165 169 175 178 183 193 181 167 173 172 156 158 162 171 177 177 185 194 198 201 202 194 194 201 203 192 197 223 219 236 225 176 188 242 243 280 316 282 213 145 160 185 197 186 172 176 167 152 155 164 165
126 109 124 127 166 242 263 332 312 171 164 155 149 149 147 135 127 127 115 106 166 92 42 47 79 76 100 117 99 95 71 66 74 343 336 171 174 174 172 174 181 188 188 171 161 158 143 173 184 187 190 191 192 182 140 133 159 181 187 190 199 205 196 188 198 214 224 222 194 227 242 244 250 248 241 217 192 200 199 191 195 196 192 174 156 165 171 172
115 128 151 148 147 206 231 271 227 196 170 157 148 148 154 147 134 138 137 139 167 157 55 52 114 43 89 125 109 111 111 62 81 348 326 307 308 198 171 175 183 183 174 167 169 155 125 190 192 196 207 203 187 143 128 144 173 186 187 190 193 195 195 196 207 217 215 203 235 238 233 241 245 222 219 229 210 205 207 196 200 201 192 183 174 179 182 177
114 134 155 159 157 182 196 187 193 209 153 152 134 117 147 155 138 132 147 178 152 162 106 61 216 252 91 108 80 111 137 95 69 60 338 308 276 155 161 175 184 176 168 173 184 159 150 199 193 191 206 199 165 151 155 166 182 186 185 191 193 190 194 205 215 219 205 194 236 236 217 233 245 223 210 229 213 203 208 194 187 181 170 169 171 181 192 191
92 105 140 162 141 160 156 135 157 175 148 157 151 117 149 164 159 139 116 121 138 169 196 314 213 197 185 86 40 94 154 127 111 162 358 313 291 141 154 171 190 188 176 173 187 178 177 197 187 180 196 196 174 166 165 168 176 183 187 191 192 191 198 209 218 219 208 214 239 241 222 237 244 217 201 220 210 202 191 147 148 164 166 173 182 193 203 202
66 94 136 157 64 140 147 130 154 171 157 161 173 160 160 164 161 147 133 144 146 159 185 215 195 175 189 198 167 229 263 58 72 131 156 238 301 10 147 146 137 203 191 166 176 219 204 193 178 169 188 204 193 183 176 173 175 183 189 190 190 193 202 212 218 216 208 220 237 239 238 250 248 203 192 212 189 157 138 148 178 189 184 186 192 202 206 204
43 38 66 142 120 125 149 148 152 168 167 169 173 166 167 170 161 148 148 171 170 156 174 190 185 165 185 201 203 220 249 318 348 13 129 174 310 3 17 23 38 194 190 153 151 197 201 188 166 160 189 210 200 190 184 175 171 183 191 189 189 195 203 210 215 212 203 216 232 236 238 247 241 171 190 205 163 158 171 182 198 208 200 194 194 200 202 201
46 29 24 81 133 123 148 153 148 176 188 186 182 171 165 163 154 145 143 178 191 185 171 171 171 159 185 216 220 212 206 225 259 288 309 279 314 337 344 347 353 334 192 175 174 184 188 182 156 160 196 212 196 176 162 149 158 196 202 194 194 199 204 209 215 215 209 213 223 226 229 235 217 138 195 204 186 192 195 190 198 208 210 205 200 198 198 201